[Iaude] MPEC T05: 2019 SO8 [a=1.40,e=0.32,i=11.7,H=26.7]

mpec at marsden.cfa.harvard.edu mpec at marsden.cfa.harvard.edu
Mon Sep 30 23:55:51 EDT 2019


M.P.E.C. 2019-T05                               Issued 2019 October 1, 03:54 UT

     The Minor Planet Electronic Circulars contain information on unusual
         minor planets and routine data on comets.  They are published
    on behalf of Division F of the International Astronomical Union by the
          Minor Planet Center, Smithsonian Astrophysical Observatory,
                          Cambridge, MA 02138, U.S.A.

             Prepared using the Tamkin Foundation Computer Network

                              MPC at CFA.HARVARD.EDU
            URL https://www.minorplanetcenter.net/    ISSN 1523-6714

                                    2019 SO8                                    


Observations:
     K19S08O  C2019 09 29.55166501 24 01.400+20 51 26.77               VET005F51
     K19S08O  C2019 09 29.56490401 24 12.157+20 43 17.88         19.72GVET005F51
     K19S08O  C2019 09 29.57875401 24 23.477+20 34 46.85               VET005F51
     K19S08O  C2019 09 29.59212801 24 34.432+20 26 34.86         19.28GVET005F51
     K19S08O* C2019 09 30.29928 01 34 32.60 +13 55 54.7          19.7 GVET005G96
     K19S08O  C2019 09 30.30494 01 34 36.00 +13 53 05.0                VET005G96
     K19S08O  C2019 09 30.31625 01 34 42.66 +13 47 28.2          20.0 GVET005G96
     K19S08O  C2019 09 30.41492 01 35 39.85 +12 58 52.9          19.3 GVET005I52
     K19S08O  C2019 09 30.41547 01 35 40.15 +12 58 37.1          19.1 GVET005I52
     K19S08O  C2019 09 30.41603 01 35 40.50 +12 58 20.3          19.8 GVET005I52
     K19S08O  C2019 09 30.41660 01 35 40.77 +12 58 03.8          19.6 GVET005I52
     K19S08O KC2019 10 01.00824 01 41 58.20 +08 32 30.7          19.6 VqET005I93
     K19S08O KC2019 10 01.01418 01 42 01.00 +08 30 04.1          19.9 VqET005I93
     K19S08O KC2019 10 01.02012 01 42 03.84 +08 27 38.0          18.6 VqET005I93

Observer details:
F51 Pan-STARRS 1, Haleakala.  Observers J. Bulger, K. Chambers, T. Lowe, E. 
   Magnier, A. Schultz, M. Willman.  Measurers S. Chastel, M. Huber, Y. 
   Ramanjooloo, R. Wainscoat, R. Weryk.  1.8-m Ritchey-Chretien + CCD.
G96 Mt. Lemmon Survey.  Observer R. A. Kowalski.  Measurers B. M. Africano, E. 
   J. Christensen, G. A. Farneth, D. C. Fuls, A. R. Gibbs, A. D. Grauer, H. 
   Groeller, R. A. Kowalski, S. M. Larson, G. J. Leonard, T. A. Pruyne, D. 
   Rankin, R. L. Seaman, F. C. Shelly.  1.5-m reflector + 10K CCD.
I52 Steward Observatory, Mt. Lemmon Station.  Observer H. Groeller.  Measurers 
   B. M. Africano, E. J. Christensen, G. A. Farneth, D. C. Fuls, A. R. Gibbs, 
   A. D. Grauer, H. Groeller, R. A. Kowalski, S. M. Larson, G. J. Leonard, T. 
   A. Pruyne, D. Rankin, R. L. Seaman, F. C. Shelly.  1.0-m reflector + CCD.
I93 St Pardon de Conques.  Observer F. Losse.  0.40-m f/3.7 reflector + CCD.

Orbital elements:
2019 SO8                                                 Earth MOID = 0.0187 AU
Epoch 2019 Apr. 27.0 TT = JDT 2458600.5                 Bell
M 290.94021              (2000.0)            P               Q
n   0.59542961     Peri.  132.53418     +0.76548179     +0.64289551
a   1.3993159      Node   187.59733     -0.63373805     +0.74602488
e   0.3234092      Incl.   11.73453     -0.11141683     +0.17358640
P   1.66           H   26.7           G   0.15           U   7
Residuals in seconds of arc
190929 F51  0.1+  0.0     190930 G96  0.2+  0.7-    190930 I52  0.7-  0.1+
190929 F51  0.1-  0.3+    190930 G96  0.3-  0.1+    191001 I93  0.0   0.2+
190929 F51  0.1+  0.1-    190930 I52  0.0   0.1+    191001 I93  0.0   0.1-
190929 F51  0.0   0.1-    190930 I52  0.2-  0.4+    191001 I93  0.7+  0.0
190930 G96  0.2-  0.2-    190930 I52  0.2+  0.1-

Ephemeris:
2019 SO8                 a,e,i = 1.40, 0.32, 12                  q = 0.9468
Date    TT    R. A. (2000) Decl.     Delta      r    Elong.  Phase     V
2019 09 01    14 47 26.7 +37 21 10   0.1411  0.9533    62.8   109.6    26.5
...
2019 09 16    15 20 44.9 +47 24 40   0.06314 0.9816    66.1   110.6    24.9
...
2019 09 24    18 29 14.0 +70 00 34   0.02584 1.0049    92.5    86.0    21.8
...
2019 09 30    01 30 40.9 +16 34 05   0.02542 1.0254   158.2    21.3    19.8
2019 10 01    01 41 49.7 +08 39 10   0.02922 1.0290   160.4    19.0    20.1
2019 10 02    01 49 53.7 +02 38 18   0.03351 1.0327   160.1    19.3    20.4
...
2019 10 08    02 11 50.3 -14 05 24   0.06369 1.0561   152.1    26.3    22.0
...
2019 10 16    02 19 42.6 -20 24 18   0.1081  1.0900   147.7    29.3    23.3
...
2019 10 31    02 21 19.2 -22 19 15   0.1987  1.1593   143.8    30.4    24.8

A. U. Tomatic                (C) Copyright 2019 MPC           M.P.E.C. 2019-T05




More information about the Iaude mailing list